Orbital Elements at Epoch 2459200.5 (2020-Dec-17.0) TDB
Reference: JPL 28 (heliocentric ecliptic J2000)
Element | Value | Uncertainty (1-sigma) | Units |
e | .2244083024128127 | 4.7736e-08 | |
a | 2.579854870754862 | 1.2082e-08 | au |
q | 2.000914018737337 | 1.2814e-07 | au |
i | 2.924653990768716 | 3.1926e-06 | deg |
node | 295.9429792319077 | 8.2933e-05 | deg |
peri | 67.32168712816468 | 8.326e-05 | deg |
M | 12.74115558465478 | 5.9231e-06 | deg |
tp | 2459146.932958829432 (2020-Oct-24.43295883) | 2.493e-05 | TDB |
period | 1513.531068141875 4.14 | 1.0632e-05 2.911e-08 | d yr |
n | .2378543840807729 | 1.6709e-09 | deg/d |
Q | 3.158795722772386 | 1.4793e-08 | au |
|
| | Orbit Determination Parameters
Additional Information
|